This is the latest recevied weather packets stored in our database for station/object KO4LCK. If no packets are shown the sender has not sent any weather packets the latest 10 day(s).
| Time | Temp. | Humidity | Pressure | Rain* | Wind** | Luminosity | Snow |
|---|---|---|---|---|---|---|---|
| 1777596883 | 15° C | 76% | 1013.9 hPa | 0 mm | - | 0 W/m² | - |
| 1777596579 | 15° C | 75% | 1013.8 hPa | 0 mm | - | 0 W/m² | - |
| 1777596277 | 15° C | 74% | 1013.8 hPa | 0 mm | - | 0 W/m² | - |
| 1777595974 | 15° C | 74% | 1013.7 hPa | 0 mm | - | 0 W/m² | - |
| 1777595669 | 15° C | 73% | 1013.4 hPa | 0 mm | - | 0 W/m² | - |
| 1777595364 | 15.56° C | 74% | 1013.5 hPa | 0 mm | - | 1 W/m² | - |
| 1777595061 | 15.56° C | 74% | 1013.4 hPa | 0 mm | - | 1 W/m² | - |
| 1777594758 | 15.56° C | 75% | 1013.3 hPa | 0 mm | - | 3 W/m² | - |
| 1777594454 | 15.56° C | 72% | 1013.3 hPa | 0 mm | - | 4 W/m² | - |
| 1777594149 | 16.11° C | 72% | 1013.4 hPa | 0 mm | - | 6 W/m² | - |
| 1777593846 | 16.11° C | 70% | 1013.5 hPa | 0 mm | - | 9 W/m² | - |
| 1777593543 | 16.67° C | 69% | 1013.4 hPa | 0 mm | - | 13 W/m² | - |
| 1777593243 | 16.67° C | 69% | 1013.4 hPa | 0 mm | - | 19 W/m² | - |
| 1777592942 | 17.22° C | 67% | 1013.4 hPa | 0 mm | - | 21 W/m² | - |
| 1777592637 | 17.22° C | 67% | 1013.3 hPa | 0 mm | - | 24 W/m² | - |
| 1777592334 | 17.78° C | 65% | 1013.3 hPa | 0 mm | - | 27 W/m² | - |
| 1777592029 | 17.78° C | 66% | 1013.4 hPa | 0 mm | - | 35 W/m² | - |
| 1777591727 | 18.33° C | 63% | 1013.3 hPa | 0 mm | - | 41 W/m² | - |
| 1777591422 | 18.89° C | 60% | 1013.3 hPa | 0 mm | - | 67 W/m² | - |
| 1777591118 | 18.89° C | 60% | 1013.3 hPa | 0 mm | - | 67 W/m² | - |
| 1777590813 | 18.89° C | 61% | 1013.4 hPa | 0 mm | - | 66 W/m² | - |
| 1777590510 | 18.89° C | 61% | 1013.4 hPa | 0 mm | - | 65 W/m² | - |
| 1777590206 | 18.89° C | 60% | 1013.3 hPa | 0 mm | - | 77 W/m² | - |
| 1777589904 | 18.89° C | 53% | 1013.2 hPa | 0 mm | - | 83 W/m² | - |
| 1777589599 | 18.89° C | 52% | 1013.1 hPa | 0 mm | - | 81 W/m² | - |
* Rain latest hour (hover to see other rain measurements)
** Current wind speed in m/s (hover to see current wind gust speed)